{"data":{"norad_id":57148,"intl_designator":"2023-090AZ","name":"STARLINK-5788","alt_names":[],"object_type":"PAYLOAD","status":"ACTIVE","operator":null,"country":"US","launch_date":"2023-06-23","launch_site_code":"AFETR","launch_vehicle":null,"mission":null,"orbit_class":"UNKNOWN","rcs_meters":null,"size_class":null,"mass_kg":null,"dimensions":null,"purposes":["comms"],"wikipedia_slug":null,"has_3d_model":false,"image_url":null,"decayed_at":null,"tle_current":{"epoch":"2026-09-20T07:21:30.849120Z","epoch_age_seconds":137650,"freshness":"FRESH","line1":"1 57148U 23090AZ  26263.30660705 -.00000844  00000+0 -21156-4 0  9991","line2":"2 57148  42.9995 244.5734 0000851 254.1819 105.8938 15.27562741180113","mean_motion":15.27562741,"eccentricity":8.51e-5,"inclination_deg":42.9995,"raan_deg":244.5734,"arg_perigee_deg":254.1819,"mean_anomaly_deg":105.8938,"bstar":-2.1156e-5,"rev_number":18011,"period_min":94.267813776168,"perigee_km":482.51688484637,"apogee_km":483.68466751588,"semimajor_km":6861.2377761811,"source":"CELESTRAK","updated_at":"2026-09-21T09:00:33.567784Z"}}}